STAR ONE D2

Last updated on Tue Sep 22 2026 00:03:15 GMT+0000 (Coordinated Universal Time)

1 49055U 21069A 26264.47520395 -.00000269 00000+0 00000+0 0 9992 2 49055 0.0096 160.7674 0002508 19.2516 281.4242 1.00272172 18925
UTC large
Height (km)
Speed (km/s)
/
Latitude / Longitude
Inclination (degrees)
Orbital Period (minutes)
Azimuth
Elevation
Range (km)
Doppler Factor

Next 0 passes for location: London (51.5072 / 0.1276)

No passes found over London.
STAR ONE D2